Ostrava, Czech Republic

9:27 AM CET on January 17, 2018 (GMT +0100)
Mosnov

Weather History for LKMT - February, 2013

Change the Weather History Date:

Friday, February 8, 2013

  Actual Average Record
Temperature  
Mean Temperature 28 °F -  
Max Temperature 33 °F 39 °F - ()
Min Temperature 23 °F 27 °F - ()
Degree Days  
Heating Degree Days 37    
Moisture  
Dew Point 24 °F    
Average Humidity 86    
Maximum Humidity 93    
Minimum Humidity 69    
Precipitation  
Precipitation 0.00 in 0.04 in - ()
Sea Level Pressure  
Sea Level Pressure 29.82 in    
Wind  
Wind Speed 3 mph ()    
Max Wind Speed 7 mph    
Max Gust Speed -    
Visibility 4.5 miles    
Events Snow    
T = Trace of Precipitation, MM = Missing Value Source: Averaged Metar Reports

Daily Weather History Graph

Daily Weather History Graph

Search for Another Location

Airport or City:

Trip Planner

Search our weather history database for the weather conditions in past years. The results will help you decide how hot, cold, wet, or windy it might be!

Date:

Astronomy

Feb. 08, 2013 Rise Set
Actual Time 7:09 AM CET 4:54 PM CET
Civil Twilight 6:35 AM CET 5:28 PM CET
Nautical Twilight 5:57 AM CET 6:06 PM CET
Astronomical Twilight 5:20 AM CET 6:43 PM CET
Moon 5:30 AM CET (2/8) 3:02 PM CET (2/8)
Length of Visible Light 10h 53m
Length of Day
9h 45m
Waning Crescent, 5% of the Moon is Illuminated
Feb 8
Waning Crescent
Feb 10
New
Feb 17
First Quarter
Feb 25
Full
Mar 4
Last Quarter

Hourly Weather History & Observations

Time (CET) Temp. Windchill Dew Point Humidity Pressure Visibility Wind Dir Wind Speed Gust Speed Precip Events Conditions
12:00 AM 28.4 °F 23.3 °F 24.8 °F 86% 29.77 in - SSW 4.6 mph - N/A   Clear
12:30 AM 26.6 °F 22.6 °F 24.8 °F 93% 29.77 in - SSW 3.5 mph - N/A   Clear
1:00 AM 27 °F - 25 °F 87% 29.83 in 5 mi SW 4.5 mph - - Snow Light Snow
1:00 AM 28.4 °F 23.3 °F 24.8 °F 86% 29.77 in 5.0 mi SW 4.6 mph - N/A Snow Light Snow
1:30 AM 28.4 °F 23.3 °F 24.8 °F 86% 29.77 in 3.7 mi SSW 4.6 mph - N/A Snow Light Snow
2:00 AM 26.6 °F 22.6 °F 24.8 °F 93% 29.77 in 3.7 mi SSW 3.5 mph - N/A   Partly Cloudy
2:30 AM 26.6 °F - 24.8 °F 93% 29.77 in 3.7 mi South 2.3 mph - N/A   Mostly Cloudy
3:00 AM 24.8 °F 20.5 °F 23.0 °F 93% 29.77 in 3.1 mi SW 3.5 mph - N/A   Mostly Cloudy
3:30 AM 26.6 °F 20.0 °F 24.8 °F 93% 29.77 in 3.1 mi SSW 5.8 mph - N/A   Overcast
4:00 AM 24.8 °F - 23.0 °F 93% 29.77 in 3.1 mi Calm Calm - N/A   Partly Cloudy
4:30 AM 24.8 °F - 23.0 °F 93% 29.77 in 3.1 mi SSW 2.3 mph - N/A   Mist
5:00 AM 23.0 °F 15.8 °F 21.2 °F 93% 29.77 in 3.1 mi West 5.8 mph - N/A   Scattered Clouds
5:30 AM 26.6 °F 20.0 °F 24.8 °F 93% 29.77 in 4.3 mi WSW 5.8 mph - N/A   Overcast
6:00 AM 24.8 °F 19.1 °F 23.0 °F 93% 29.77 in 4.3 mi SW 4.6 mph - N/A   Mostly Cloudy
6:30 AM 24.8 °F 19.1 °F 23.0 °F 93% 29.80 in 5.0 mi West 4.6 mph - N/A   Mostly Cloudy
7:00 AM 25 °F - 22 °F 86% 29.87 in 4 mi SW 4.5 mph - - Snow Light Snow
7:00 AM 24.8 °F 19.1 °F 23.0 °F 93% 29.80 in 3.7 mi SW 4.6 mph - N/A Snow Light Snow
7:30 AM 24.8 °F 17.9 °F 23.0 °F 93% 29.80 in 2.8 mi SW 5.8 mph - N/A Snow Light Snow
8:00 AM 24.8 °F 20.5 °F 23.0 °F 93% 29.80 in 3.7 mi SSW 3.5 mph - N/A   Mostly Cloudy
8:30 AM 26.6 °F - 24.8 °F 93% 29.80 in 2.2 mi WSW 2.3 mph - N/A Snow Light Snow
9:00 AM 26.6 °F - 24.8 °F 93% 29.80 in 2.8 mi Variable 2.3 mph - N/A Snow Light Snow
9:30 AM 26.6 °F - 24.8 °F 93% 29.83 in 3.7 mi Variable 2.3 mph - N/A Snow Light Snow
10:00 AM 28.4 °F 24.6 °F 24.8 °F 86% 29.80 in 3.1 mi WSW 3.5 mph - N/A Snow Light Snow
10:07 AM 28.4 °F - 24.8 °F 86% 29.83 in 1.9 mi Variable 2.3 mph - N/A Snow Snow
10:30 AM 28.4 °F - 24.8 °F 86% 29.83 in 2.8 mi Variable 2.3 mph - N/A Snow Light Snow
11:00 AM 28.4 °F 24.6 °F 26.6 °F 93% 29.83 in 3.7 mi East 3.5 mph - N/A Snow Light Snow
11:30 AM 30.2 °F 26.7 °F 26.6 °F 86% 29.83 in 3.7 mi East 3.5 mph - N/A   Mostly Cloudy
12:00 PM 32.0 °F 28.7 °F 28.4 °F 87% 29.83 in 4.3 mi ENE 3.5 mph - N/A   Mostly Cloudy
12:30 PM 32.0 °F 28.7 °F 26.6 °F 80% 29.83 in 5.0 mi NE 3.5 mph - N/A   Mostly Cloudy
1:00 PM 32 °F - 26 °F 71% 29.88 in 6 mi 4.5 mph - -   Mist
1:00 PM 32.0 °F - 26.6 °F 80% 29.83 in 5.6 mi Variable 2.3 mph - N/A   Mostly Cloudy
1:30 PM 32.0 °F 28.7 °F 26.6 °F 80% 29.83 in 5.6 mi East 3.5 mph - N/A Snow Light Snow Showers
2:00 PM 32.0 °F 27.5 °F 26.6 °F 80% 29.83 in 5.0 mi East 4.6 mph - N/A   Mostly Cloudy
2:30 PM 32.0 °F 28.7 °F 26.6 °F 80% 29.83 in 5.6 mi ENE 3.5 mph - N/A   Scattered Clouds
3:00 PM 32.0 °F - 24.8 °F 75% 29.83 in 6.2 mi Variable 2.3 mph - N/A   Mostly Cloudy
3:30 PM 32.0 °F 25.6 °F 24.8 °F 75% 29.83 in 6.2 mi NE 6.9 mph - N/A   Mostly Cloudy
4:00 PM 32.0 °F - 23.0 °F 69% 29.83 in 6.2 mi NNE 2.3 mph - N/A   Mostly Cloudy
4:30 PM 32.0 °F 26.4 °F 23.0 °F 69% 29.83 in 6.2 mi NNE 5.8 mph - N/A   Mostly Cloudy
5:00 PM 30.2 °F 25.4 °F 23.0 °F 75% 29.83 in 6.2 mi NNE 4.6 mph - N/A   Scattered Clouds
5:30 PM 30.2 °F 26.7 °F 23.0 °F 75% 29.83 in 6.2 mi North 3.5 mph - N/A   Scattered Clouds
6:00 PM 28.4 °F 24.6 °F 23.0 °F 80% 29.86 in - North 3.5 mph - N/A   Clear
6:30 PM 28.4 °F 24.6 °F 23.0 °F 80% 29.86 in 6.2 mi North 3.5 mph - N/A   Partly Cloudy
7:00 PM 27 °F - 22 °F 76% 29.92 in 7 mi North 4.5 mph - -   Scattered Clouds
7:00 PM 26.6 °F 21.2 °F 23.0 °F 86% 29.86 in - North 4.6 mph - N/A   Clear
7:30 PM 26.6 °F 21.2 °F 23.0 °F 86% 29.86 in 6.2 mi North 4.6 mph - N/A   Mostly Cloudy
8:00 PM 28.4 °F - 24.8 °F 86% 29.86 in 6.2 mi ENE 2.3 mph - N/A   Mostly Cloudy
8:30 PM 28.4 °F - 24.8 °F 86% 29.86 in 6.2 mi ENE 2.3 mph - N/A   Overcast
9:00 PM 28.4 °F 24.6 °F 24.8 °F 86% 29.86 in 5.0 mi NE 3.5 mph - N/A   Mostly Cloudy
9:30 PM 28.4 °F 24.6 °F 24.8 °F 86% 29.89 in 5.0 mi NE 3.5 mph - N/A   Mostly Cloudy
10:00 PM 26.6 °F 21.2 °F 23.0 °F 86% 29.89 in 5.0 mi North 4.6 mph - N/A   Scattered Clouds
10:30 PM 26.6 °F - 23.0 °F 86% 29.89 in 3.1 mi North 2.3 mph - N/A   Mist
11:00 PM 26.6 °F - 23.0 °F 86% 29.89 in 3.1 mi NNE 1.2 mph - N/A   Mist
11:30 PM 24.8 °F - 23.0 °F 93% 29.89 in 3.1 mi East 2.3 mph - N/A   Mist